FW0303 Weather Reports


time (UTC)temp
F
wind
direction
speed
knots
gust
knots
rain 1hr
in
rain 24hr
in
rain mn
in
humidity
%
barometer
mb
20260504214529 73 233 0.0 0.0 0.00 0.00 0.00 33 1009.5
20260504213039 73 5 0.0 0.0 0.00 0.00 0.00 32 1009.5
20260504211532 74 59 0.0 0.0 0.00 0.00 0.00 33 1009.6
20260504210025 73 194 0.0 0.0 0.00 0.00 0.00 33 1009.7
20260504204535 73 294 0.0 0.0 0.00 0.00 0.00 33 1009.5
20260504203024 73 32 0.0 0.0 0.00 0.00 0.00 32 1009.6
20260504201519 73 360 0.0 0.0 0.00 0.00 0.00 29 1009.6
20260504200018 74 5 0.0 0.0 0.00 0.00 0.00 29 1009.6
20260504194516 74 36 0.0 0.0 0.00 0.00 0.00 31 1009.8
20260504193016 74 346 0.0 0.0 0.00 0.00 0.00 32 1009.9
20260504191513 74 248 0.0 0.0 0.00 0.00 0.00 30 1010.1
20260504190010 74 360 0.0 3.5 0.00 0.00 0.00 32 1010.4
20260504184508 74 247 1.7 5.2 0.00 0.00 0.00 32 1010.6
20260504183008 74 320 0.0 0.0 0.00 0.00 0.00 32 1010.7
20260504181506 74 213 0.0 0.0 0.00 0.00 0.00 35 1010.9
20260504180001 73 77 0.0 0.0 0.00 0.00 0.00 38 1011.1
20260504174618 72 265 0.0 0.0 0.00 0.00 0.00 33 1011.2
20260504173101 72 238 0.0 0.0 0.00 0.00 0.00 35 1011.3
20260504171554 71 196 0.0 0.0 0.00 0.00 0.00 40 1011.4
20260504090120 33 137 0.0 0.0 0.00 0.00 0.00 84 1014.5
20260504081511 34 137 0.0 0.0 0.00 0.00 0.00 83 1014.2
20260504044559 37 137 0.0 0.0 0.00 0.00 0.00 81 1013.8
20260504043054 37 137 0.0 0.0 0.00 0.00 0.00 80 1013.7
20260504041546 38 137 0.0 0.0 0.00 0.00 0.00 80 1013.5
20260504040100 38 137 0.0 0.0 0.00 0.00 0.00 79 1013.3
20260504034603 38 137 0.0 0.0 0.00 0.00 0.00 79 1013.3
20260504033039 39 137 0.0 0.0 0.00 0.00 0.00 78 1013.2
20260504031538 39 137 0.0 0.0 0.00 0.00 0.00 77 1013.1
20260504030037 39 137 0.0 0.0 0.00 0.00 0.00 77 1013.0
20260504024533 40 137 0.0 0.0 0.00 0.00 0.00 75 1013.0
20260504023031 41 137 0.0 0.0 0.00 0.00 0.00 74 1013.1
20260504021529 41 137 0.0 0.0 0.00 0.00 0.00 72 1013.0
20260504020028 42 137 0.0 0.0 0.00 0.00 0.00 71 1013.0
20260504014528 43 137 0.0 0.0 0.00 0.00 0.00 69 1012.9
20260504013036 45 137 0.0 0.0 0.00 0.00 0.00 66 1012.7
20260504011527 46 137 0.0 0.0 0.00 0.00 0.00 63 1012.6
20260504010026 48 137 0.0 0.0 0.00 0.00 0.00 59 1012.5
20260504004526 49 137 0.0 0.0 0.00 0.00 0.00 54 1012.2
20260504003026 51 137 0.0 0.0 0.00 0.00 0.00 50 1012.1
20260504001525 53 137 0.0 0.0 0.00 0.00 0.00 46 1011.9
20260504000026 54 137 0.0 0.9 0.00 0.00 0.00 41 1011.8
20260503234526 55 137 0.0 1.7 0.00 0.00 0.00 39 1011.6
20260503233023 56 127 0.0 0.0 0.00 0.00 0.00 39 1011.5
20260503231523 57 191 0.0 0.0 0.00 0.00 0.00 39 1011.5
20260503230028 57 175 0.0 0.0 0.00 0.00 0.00 36 1011.3
20260503224523 58 317 0.0 0.0 0.00 0.00 0.00 34 1011.4
20260503223023 58 291 0.0 0.0 0.00 0.00 0.00 39 1011.3
20260503221521 59 346 0.0 0.0 0.00 0.00 0.00 30 1011.2
20260503220020 60 289 0.0 0.0 0.00 0.00 0.00 33 1011.3